Weather History for KPMD - May, 2014

Change the Weather History Date:

Saturday, May 24, 2014

  Actual Average Record
Temperature  
Mean Temperature 76 °F 70 °F  
Max Temperature 89 °F 86 °F 98 °F (2001)
Min Temperature 63 °F 54 °F 39 °F (1980)
Degree Days  
Heating Degree Days 0 1  
Month to date heating degree days 35 61  
Since 1 July heating degree days 2331 2911  
Cooling Degree Days 11 6  
Month to date cooling degree days 94 97  
Year to date cooling degree days 138 120  
Growing Degree Days 26 (Base 50)    
Moisture  
Dew Point 45 °F    
Average Humidity 40    
Maximum Humidity 60    
Minimum Humidity 20    
Precipitation  
Precipitation 0.00 in 0.00 in 0.00 in (2015)
Month to date precipitation 0.96 0.22  
Year to date precipitation 3.05 5.20  
Since 1 July precipitation 5.12 8.18  
Snow  
Snow 0.00 in - - ()
Month to date snowfall 0.0  
Since 1 July snowfall 0.0  
Snow Depth 0.00 in    
Sea Level Pressure  
Sea Level Pressure 29.87 in    
Wind  
Wind Speed 15 mph (WSW)    
Max Wind Speed 25 mph    
Max Gust Speed 32 mph    
Visibility 10 miles    
Events      
T = Trace of Precipitation, MM = Missing Value Source: NWS Daily Summary

Daily Weather History Graph

Daily Weather History Graph

Search for Another Location

Airport or City:

Trip Planner

Search our weather history database for the weather conditions in past years. The results will help you decide how hot, cold, wet, or windy it might be!

Date:

Astronomy

May. 24, 2014 Rise Set
Actual Time 5:43 AM PDT 7:54 PM PDT
Civil Twilight 5:15 AM PDT 8:23 PM PDT
Nautical Twilight 4:40 AM PDT 8:58 PM PDT
Astronomical Twilight 4:02 AM PDT 9:36 PM PDT
Moon 3:04 AM PDT (5/24) 4:06 PM PDT (5/24)
Length of Visible Light 15h 08m
Length of Day
14h 11m
Waning Crescent, 17% of the Moon is Illuminated
May 24
Waning Crescent
May 28
New
Jun 5
First Quarter
Jun 12
Full
Jun 19
Last Quarter

Hourly Weather History & Observations

Time (PDT) Temp. Dew Point Humidity Pressure Visibility Wind Dir Wind Speed Gust Speed Precip Events Conditions
12:53 AM 64.9 °F 46.9 °F 52% 29.90 in 10.0 mi SW 13.8 mph - N/A   Clear
1:53 AM 66.0 °F 46.0 °F 48% 29.89 in 10.0 mi SSW 9.2 mph - N/A   Clear
2:53 AM 63.0 °F 48.0 °F 58% 29.90 in 10.0 mi SSW 10.4 mph - N/A   Clear
3:53 AM 64.0 °F 46.9 °F 54% 29.88 in 10.0 mi SW 11.5 mph - N/A   Clear
4:53 AM 64.0 °F 46.9 °F 54% 29.88 in 10.0 mi SSW 10.4 mph - N/A   Clear
5:53 AM 64.9 °F 46.0 °F 50% 29.88 in 10.0 mi SSW 15.0 mph - N/A   Clear
6:53 AM 69.1 °F 45.0 °F 42% 29.89 in 10.0 mi SW 10.4 mph - N/A   Clear
7:53 AM 70.0 °F 45.0 °F 41% 29.89 in 10.0 mi SW 12.7 mph - N/A   Clear
8:53 AM 75.9 °F 44.1 °F 32% 29.89 in 10.0 mi West 16.1 mph - N/A   Clear
9:53 AM 79.0 °F 43.0 °F 28% 29.88 in 10.0 mi West 13.8 mph - N/A   Clear
10:53 AM 82.0 °F 39.0 °F 22% 29.87 in 10.0 mi West 12.7 mph 19.6 mph N/A   Clear
11:53 AM 84.9 °F 39.9 °F 20% 29.86 in 10.0 mi West 17.3 mph 23.0 mph N/A   Clear
12:53 PM 84.9 °F 39.0 °F 20% 29.84 in 10.0 mi West 11.5 mph 18.4 mph N/A   Clear
1:53 PM 88.0 °F 41.0 °F 19% 29.83 in 10.0 mi West 20.7 mph 26.5 mph N/A   Clear
2:53 PM 87.1 °F 41.0 °F 20% 29.83 in 10.0 mi WSW 21.9 mph 29.9 mph N/A   Clear
3:53 PM 84.2 °F 42.8 °F 23% 29.89 in 10.0 mi West 20.7 mph 29.9 mph N/A   Clear
4:53 PM 84.0 °F 45.0 °F 25% 29.81 in 10.0 mi WSW 20.7 mph - N/A   Clear
5:53 PM 82.0 °F 45.0 °F 27% 29.81 in 10.0 mi WSW 19.6 mph 27.6 mph N/A   Clear
6:53 PM 77.0 °F 46.9 °F 34% 29.82 in 10.0 mi WSW 16.1 mph - N/A   Clear
7:53 PM 73.4 °F 46.4 °F 38% 29.91 in 10.0 mi SW 15.0 mph - N/A   Clear
8:53 PM 70.0 °F 46.9 °F 44% 29.86 in 10.0 mi SW 15.0 mph - N/A   Clear
9:53 PM 69.1 °F 46.9 °F 45% 29.88 in 10.0 mi SSW 15.0 mph - N/A   Clear
10:53 PM 69.8 °F 46.4 °F 43% 29.95 in 10.0 mi SSW 9.2 mph - N/A   Clear
11:53 PM 69.1 °F 46.0 °F 44% 29.86 in 10.0 mi WSW 13.8 mph - N/A   Clear